timestamp,wind_dir_avg,wind_spd_avg,wind_spd_max_dir,wind_spd_gust,battery_voltage,lat,long
2023-11-15 00:04:01+00:00,358.0,5.84,20.0,6.98,12.41,47.59359,-54.27349
2023-11-15 00:14:00+00:00,55.0,6.94,65.0,9.84,12.33,47.59359,-54.27349
2023-11-15 00:24:00+00:00,15.0,6.59,20.0,8.73,12.33,47.59359,-54.27349
2023-11-15 00:34:00+00:00,48.0,4.86,51.0,6.31,12.33,47.59359,-54.27349
2023-11-15 00:44:00+00:00,50.0,6.09,66.0,9.89,12.33,47.59359,-54.27349
2023-11-15 00:54:00+00:00,60.0,5.08,61.0,5.93,12.33,47.59359,-54.27349
2023-11-15 01:04:00+00:00,58.0,5.63,68.0,9.95,12.33,47.59359,-54.27349
2023-11-15 01:14:00+00:00,359.0,3.95,28.0,4.86,12.33,47.59359,-54.27349
2023-11-15 01:24:00+00:00,53.0,4.87,56.0,5.67,12.33,47.59359,-54.27349
2023-11-15 01:34:00+00:00,44.0,5.42,41.0,6.34,12.33,47.59359,-54.27349
2023-11-15 01:44:00+00:00,38.0,4.37,50.0,5.46,12.33,47.59359,-54.27349
2023-11-15 01:54:00+00:00,60.0,5.7,74.0,7.58,12.33,47.59359,-54.27349
2023-11-15 02:04:00+00:00,50.0,5.1,66.0,7.79,12.33,47.59359,-54.27349
2023-11-15 02:14:01+00:00,73.0,4.31,68.0,4.9,12.33,47.59359,-54.27349
2023-11-15 02:24:01+00:00,69.0,2.17,54.0,4.6,12.33,47.59359,-54.27349
2023-11-15 02:34:01+00:00,66.0,5.42,78.0,9.14,12.33,47.59359,-54.27349
2023-11-15 02:44:01+00:00,87.0,3.5,81.0,4.73,12.33,47.59359,-54.27349
2023-11-15 02:54:01+00:00,68.0,5.31,72.0,9.85,12.33,47.59359,-54.27349
2023-11-15 03:04:01+00:00,71.0,5.86,77.0,9.63,12.33,47.59359,-54.27349
2023-11-15 03:14:00+00:00,37.0,5.03,36.0,7.48,12.33,47.59359,-54.27349
2023-11-15 03:24:00+00:00,39.0,5.99,34.0,6.57,12.33,47.59359,-54.27349
2023-11-15 03:34:00+00:00,34.0,4.85,32.0,5.94,12.33,47.59359,-54.27349
2023-11-15 03:44:00+00:00,44.0,4.82,37.0,6.91,12.33,47.59359,-54.27349
2023-11-15 03:54:00+00:00,48.0,5.91,58.0,9.69,12.33,47.59359,-54.27349
2023-11-15 04:04:00+00:00,51.0,5.25,37.0,6.74,12.33,47.59359,-54.27349
2023-11-15 04:14:00+00:00,25.0,4.1,40.0,5.62,12.25,47.59359,-54.27349
2023-11-15 04:24:00+00:00,56.0,6.41,59.0,11.26,12.25,47.59359,-54.27349
2023-11-15 04:34:00+00:00,54.0,5.19,67.0,7.42,12.25,47.59359,-54.27349
2023-11-15 04:44:00+00:00,69.0,5.62,82.0,9.58,12.25,47.59359,-54.27349
2023-11-15 04:54:00+00:00,65.0,7.8,67.0,10.26,12.25,47.59359,-54.27349
2023-11-15 05:04:00+00:00,65.0,8.14,69.0,10.79,12.25,47.59359,-54.27349
2023-11-15 05:14:01+00:00,60.0,6.68,69.0,10.04,12.25,47.59359,-54.27349
2023-11-15 05:24:01+00:00,62.0,7.9,69.0,10.5,12.25,47.59359,-54.27349
2023-11-15 05:34:01+00:00,63.0,7.48,73.0,9.77,12.25,47.59359,-54.27349
2023-11-15 05:44:01+00:00,62.0,7.87,63.0,10.76,12.25,47.59359,-54.27349
2023-11-15 05:54:01+00:00,32.0,7.18,40.0,8.97,12.25,47.59359,-54.27349
2023-11-15 06:04:01+00:00,19.0,8.37,17.0,9.57,12.25,47.59359,-54.27349
2023-11-15 06:14:01+00:00,26.0,8.75,21.0,9.7,12.25,47.59359,-54.27349
2023-11-15 06:24:01+00:00,31.0,8.95,41.0,12.62,12.25,47.59359,-54.27349
2023-11-15 06:34:01+00:00,31.0,8.49,46.0,12.34,12.25,47.59359,-54.27349
2023-11-15 06:44:01+00:00,23.0,8.32,27.0,9.38,12.25,47.59359,-54.27349
2023-11-15 06:54:01+00:00,23.0,8.49,34.0,10.09,12.25,47.59359,-54.27349
2023-11-15 07:04:01+00:00,25.0,7.54,28.0,8.59,12.25,47.59359,-54.27349
2023-11-15 07:14:01+00:00,33.0,8.33,47.0,11.72,12.25,47.59359,-54.27349
2023-11-15 07:24:01+00:00,23.0,7.7,25.0,8.77,12.25,47.59359,-54.27349
2023-11-15 07:34:01+00:00,29.0,9.12,44.0,11.01,12.25,47.59359,-54.27349
2023-11-15 07:44:01+00:00,32.0,9.99,45.0,12.92,12.25,47.59359,-54.27349
2023-11-15 07:54:01+00:00,31.0,9.9,46.0,13.25,12.25,47.59359,-54.27349
2023-11-15 08:04:01+00:00,28.0,11.13,46.0,13.38,12.25,47.59359,-54.27349
2023-11-15 08:14:01+00:00,26.0,10.07,45.0,12.22,12.17,47.59359,-54.27349
2023-11-15 08:24:01+00:00,21.0,9.08,26.0,10.7,12.17,47.59359,-54.27349
2023-11-15 08:34:01+00:00,41.0,11.61,42.0,13.71,12.17,47.59359,-54.27349
2023-11-15 08:44:01+00:00,33.0,10.17,37.0,14.08,12.17,47.59359,-54.27349
2023-11-15 08:54:01+00:00,54.0,9.87,55.0,11.64,12.17,47.59359,-54.27349
2023-11-15 09:04:01+00:00,57.0,8.57,55.0,11.46,12.17,47.59359,-54.27349
2023-11-15 09:14:00+00:00,57.0,9.58,58.0,11.73,12.17,47.59359,-54.27349
2023-11-15 09:24:00+00:00,42.0,10.98,47.0,12.34,12.17,47.59359,-54.27349
2023-11-15 09:34:00+00:00,49.0,10.74,46.0,12.25,12.17,47.59359,-54.27349
2023-11-15 09:44:00+00:00,18.0,9.18,18.0,10.59,12.17,47.59359,-54.27349
2023-11-15 09:54:00+00:00,34.0,9.11,45.0,11.56,12.17,47.59359,-54.27349
2023-11-15 10:04:00+00:00,44.0,10.45,51.0,12.13,12.17,47.59359,-54.27349
2023-11-15 10:14:01+00:00,35.0,10.18,45.0,12.03,12.17,47.59359,-54.27349
2023-11-15 10:24:01+00:00,25.0,10.37,23.0,11.35,12.17,47.59359,-54.27349
2023-11-15 10:34:01+00:00,34.0,9.98,45.0,12.1,12.17,47.59359,-54.27349
2023-11-15 10:44:01+00:00,27.0,9.37,33.0,10.81,12.17,47.59359,-54.27349
2023-11-15 10:54:01+00:00,26.0,8.32,24.0,9.5,12.17,47.59359,-54.27349
2023-11-15 11:04:01+00:00,30.0,8.84,45.0,10.52,12.17,47.59359,-54.27349
2023-11-15 11:14:00+00:00,22.0,8.55,16.0,9.84,12.17,47.59359,-54.27349
2023-11-15 11:24:00+00:00,29.0,8.78,26.0,10.14,12.17,47.59359,-54.27349
2023-11-15 11:34:00+00:00,33.0,8.33,32.0,10.04,12.17,47.59359,-54.27349
2023-11-15 11:44:00+00:00,52.0,8.81,58.0,10.83,12.17,47.59359,-54.27349
2023-11-15 11:54:00+00:00,39.0,8.5,38.0,10.39,12.17,47.59359,-54.27349
2023-11-15 12:04:00+00:00,33.0,8.94,42.0,11.0,12.17,47.59359,-54.27349
2023-11-15 12:14:00+00:00,33.0,7.94,35.0,9.4,13.84,47.59359,-54.27349
2023-11-15 12:24:00+00:00,33.0,8.62,36.0,10.7,13.84,47.59359,-54.27349
2023-11-15 12:34:00+00:00,29.0,8.27,31.0,9.06,13.84,47.59359,-54.27349
2023-11-15 12:44:00+00:00,32.0,8.62,35.0,10.18,13.84,47.59359,-54.27349
2023-11-15 12:54:00+00:00,33.0,7.85,33.0,9.0,13.84,47.59359,-54.27349
2023-11-15 13:04:00+00:00,37.0,8.47,48.0,10.27,13.84,47.59359,-54.27349
2023-11-15 13:14:00+00:00,35.0,9.75,33.0,11.69,13.76,47.59359,-54.27349
2023-11-15 13:24:00+00:00,33.0,9.31,24.0,11.27,13.76,47.59359,-54.27349
2023-11-15 13:34:00+00:00,32.0,8.74,29.0,10.8,13.76,47.59359,-54.27349
2023-11-15 13:44:00+00:00,42.0,8.37,43.0,9.98,13.76,47.59359,-54.27349
2023-11-15 13:54:00+00:00,42.0,9.4,48.0,10.83,13.76,47.59359,-54.27349
2023-11-15 14:04:00+00:00,38.0,7.53,26.0,11.48,13.76,47.59359,-54.27349
2023-11-15 14:14:00+00:00,53.0,6.46,52.0,7.68,13.84,47.59359,-54.27349
2023-11-15 14:24:00+00:00,51.0,7.9,60.0,9.56,13.84,47.59359,-54.27349
2023-11-15 14:34:00+00:00,42.0,7.26,45.0,10.2,13.84,47.59359,-54.27349
2023-11-15 14:44:00+00:00,54.0,7.6,60.0,10.34,13.84,47.59359,-54.27349
2023-11-15 14:54:00+00:00,54.0,5.82,60.0,7.06,13.84,47.59359,-54.27349
2023-11-15 15:04:00+00:00,48.0,6.95,64.0,10.21,13.84,47.59359,-54.27349
2023-11-15 15:14:01+00:00,59.0,7.76,67.0,10.35,13.76,47.59359,-54.27349
2023-11-15 15:24:01+00:00,52.0,6.84,51.0,9.53,13.76,47.59359,-54.27349
2023-11-15 15:34:01+00:00,51.0,6.45,49.0,7.99,13.76,47.59359,-54.27349
2023-11-15 15:44:01+00:00,55.0,6.98,64.0,10.07,13.76,47.59359,-54.27349
2023-11-15 15:54:01+00:00,51.0,6.68,56.0,10.4,13.76,47.59359,-54.27349
2023-11-15 16:04:01+00:00,47.0,7.46,60.0,10.7,13.76,47.59359,-54.27349
2023-11-15 16:14:01+00:00,56.0,6.87,65.0,9.73,13.6,47.59359,-54.27349
2023-11-15 16:24:01+00:00,46.0,9.26,53.0,11.4,13.6,47.59359,-54.27349
2023-11-15 16:34:01+00:00,49.0,5.28,36.0,6.89,13.6,47.59359,-54.27349
2023-11-15 16:44:01+00:00,53.0,7.59,57.0,10.86,13.6,47.59359,-54.27349
2023-11-15 16:54:01+00:00,51.0,9.08,53.0,10.96,13.6,47.59359,-54.27349
2023-11-15 17:04:01+00:00,46.0,6.15,48.0,8.8,13.6,47.59359,-54.27349
2023-11-15 17:14:01+00:00,55.0,6.36,65.0,9.33,13.92,47.59359,-54.27349
2023-11-15 17:24:01+00:00,54.0,7.23,56.0,10.0,13.92,47.59359,-54.27349
2023-11-15 17:34:01+00:00,52.0,6.64,62.0,10.7,13.92,47.59359,-54.27349
2023-11-15 17:44:01+00:00,63.0,8.44,66.0,10.55,13.92,47.59359,-54.27349
2023-11-15 17:54:01+00:00,38.0,6.9,58.0,9.5,13.92,47.59359,-54.27349
2023-11-15 18:04:01+00:00,62.0,8.55,65.0,10.19,13.92,47.59359,-54.27349
2023-11-15 18:14:01+00:00,58.0,5.89,69.0,9.74,14.4,47.59359,-54.27349
2023-11-15 18:24:01+00:00,37.0,6.89,55.0,8.22,14.4,47.59359,-54.27349
2023-11-15 18:34:01+00:00,54.0,8.34,67.0,10.21,14.4,47.59359,-54.27349
2023-11-15 18:44:01+00:00,60.0,8.83,59.0,10.65,14.4,47.59359,-54.27349
2023-11-15 18:54:01+00:00,50.0,5.71,44.0,6.59,14.4,47.59359,-54.27349
2023-11-15 19:04:01+00:00,45.0,5.5,54.0,6.62,14.4,47.59359,-54.27349
2023-11-15 19:14:01+00:00,35.0,4.65,35.0,5.46,13.6,47.59359,-54.27349
2023-11-15 19:24:01+00:00,57.0,6.64,64.0,8.66,13.6,47.59359,-54.27349
2023-11-15 19:34:01+00:00,57.0,8.17,61.0,10.41,13.6,47.59359,-54.27349
2023-11-15 19:44:01+00:00,61.0,5.56,68.0,8.28,13.6,47.59359,-54.27349
2023-11-15 19:54:01+00:00,41.0,7.32,46.0,8.57,13.6,47.59359,-54.27349
2023-11-15 20:04:01+00:00,30.0,7.36,31.0,8.53,13.6,47.59359,-54.27349
2023-11-15 20:14:00+00:00,30.0,9.65,36.0,12.01,12.89,47.59359,-54.27349
2023-11-15 20:24:00+00:00,24.0,9.64,31.0,11.2,12.89,47.59359,-54.27349
2023-11-15 20:34:00+00:00,23.0,8.43,42.0,11.16,12.89,47.59359,-54.27349
2023-11-15 20:44:00+00:00,24.0,9.39,34.0,10.99,12.89,47.59359,-54.27349
2023-11-15 20:54:00+00:00,18.0,9.06,16.0,10.54,12.89,47.59359,-54.27349
2023-11-15 21:04:00+00:00,16.0,9.61,19.0,11.06,12.89,47.59359,-54.27349
2023-11-15 21:14:01+00:00,25.0,8.32,26.0,9.91,12.49,47.59359,-54.27349
2023-11-15 21:24:01+00:00,20.0,9.88,17.0,11.15,12.49,47.59359,-54.27349
2023-11-15 21:34:01+00:00,32.0,9.08,35.0,11.02,12.49,47.59359,-54.27349
2023-11-15 21:44:01+00:00,40.0,9.48,42.0,11.79,12.49,47.59359,-54.27349
2023-11-15 21:54:01+00:00,33.0,9.32,40.0,11.22,12.49,47.59359,-54.27349
2023-11-15 22:04:01+00:00,61.0,8.41,72.0,10.0,12.49,47.59359,-54.27349
2023-11-15 22:14:00+00:00,43.0,8.72,53.0,11.21,12.41,47.59359,-54.27349
2023-11-15 22:24:00+00:00,36.0,9.03,54.0,11.82,12.41,47.59359,-54.27349
2023-11-15 22:34:00+00:00,47.0,8.96,56.0,10.8,12.41,47.59359,-54.27349
2023-11-15 22:44:00+00:00,53.0,8.29,67.0,10.17,12.41,47.59359,-54.27349
2023-11-15 22:54:00+00:00,43.0,6.13,43.0,7.1,12.41,47.59359,-54.27349
2023-11-15 23:04:00+00:00,54.0,8.8,56.0,11.24,12.41,47.59359,-54.27349
2023-11-15 23:14:00+00:00,55.0,6.62,60.0,8.69,12.41,47.59359,-54.27349
2023-11-15 23:24:00+00:00,42.0,9.27,46.0,10.81,12.41,47.59359,-54.27349
2023-11-15 23:34:00+00:00,62.0,8.08,67.0,10.38,12.41,47.59359,-54.27349
2023-11-15 23:44:00+00:00,33.0,9.88,35.0,11.54,12.41,47.59359,-54.27349
2023-11-15 23:54:00+00:00,54.0,7.89,57.0,10.51,12.41,47.59359,-54.27349
